Estació meteorològica de Bellmunt (Osona, Osona)

Consulta les dades en temps real de l'estació meteorològica de Bellmunt





Hora UTC 07:30
Temperatura 20.8 ºC
Humitat 62.0 %
Pressió 1017.9 hPa
Pluja 0.0 mm
Velocitat vent 0.0 km/h
Direcció vent SSW

Dades diàries 2026-09-03



Hora UTC (hivern +1h; estiu +2h)
Temperatura (ºC) Humitat (%) Pressió (hPa) Velocitat vent (km/h) Precipitació (mm)
Hora UTC Aire Humitat Pressió Vel. Dir. Vel. Max Dir. Intent. màx 5 min.
00:05 18.9 64.0 1017.9 0.0 NE 0.0 0.0
00:10 18.8 65.0 1017.8 0.0 NE 0.0 0.0
00:15 18.8 65.0 1017.8 0.0 NE 0.0 0.0
00:20 18.6 65.0 1017.7 0.0 NE 0.0 0.0
00:25 18.5 65.0 1017.7 0.0 NE 0.0 0.0
00:30 18.5 66.0 1017.9 0.0 NNE 0.0 0.0
00:35 18.7 66.0 1017.8 3.2 N 4.8 0.0
00:40 18.8 65.0 1017.8 1.6 N 4.8 0.0
00:45 18.9 65.0 1017.8 0.0 N 4.8 0.0
00:50 18.7 65.0 1017.8 0.0 N 1.6 0.0
00:55 18.4 65.0 1017.8 0.0 N 0.0 0.0
01:00 18.2 66.0 1017.7 0.0 N 0.0 0.0
01:05 18.1 66.0 1017.7 0.0 N 0.0 0.0
01:10 18.1 66.0 1017.7 0.0 N 0.0 0.0
01:15 18.0 66.0 1017.7 0.0 N 0.0 0.0
01:20 17.9 67.0 1017.6 0.0 N 0.0 0.0
01:25 17.9 67.0 1017.6 0.0 N 0.0 0.0
01:30 17.9 67.0 1017.6 0.0 N 0.0 0.0
01:35 17.8 67.0 1017.7 0.0 N 0.0 0.0
01:40 17.6 67.0 1017.7 0.0 N 0.0 0.0
01:45 17.4 67.0 1017.6 0.0 N 0.0 0.0
01:50 17.5 68.0 1017.5 0.0 N 0.0 0.0
01:55 17.3 68.0 1017.5 0.0 N 0.0 0.0
02:00 17.3 68.0 1017.4 0.0 N 0.0 0.0
02:05 17.4 68.0 1017.5 0.0 N 0.0 0.0
02:10 17.6 68.0 1017.4 0.0 NNE 0.0 0.0
02:15 17.8 68.0 1017.5 1.6 NNE 3.2 0.0
02:20 17.8 67.0 1017.4 0.0 NNE 3.2 0.0
02:25 17.8 67.0 1017.4 0.0 NNE 0.0 0.0
02:30 17.6 67.0 1017.4 0.0 NNE 0.0 0.0
02:35 17.4 67.0 1017.4 0.0 NNE 0.0 0.0
02:40 17.6 68.0 1017.4 0.0 NNE 0.0 0.0
02:45 17.7 67.0 1017.4 0.0 NE 0.0 0.0
02:50 17.6 67.0 1017.4 0.0 NE 0.0 0.0
02:55 17.6 68.0 1017.3 0.0 NE 0.0 0.0
03:00 17.6 68.0 1017.4 0.0 NNE 0.0 0.0
03:05 17.6 68.0 1017.3 0.0 NE 0.0 0.0
03:10 17.6 68.0 1017.3 0.0 NE 0.0 0.0
03:15 17.4 68.0 1017.3 0.0 NE 0.0 0.0
03:20 17.2 68.0 1017.2 0.0 NE 0.0 0.0
03:25 17.1 68.0 1017.3 0.0 NE 0.0 0.0
03:30 17.0 69.0 1017.3 0.0 NE 0.0 0.0
03:35 17.1 69.0 1017.2 0.0 NNE 0.0 0.0
03:40 17.2 69.0 1017.3 0.0 NNE 0.0 0.0
03:45 17.3 68.0 1017.2 0.0 NNE 0.0 0.0
03:50 17.2 68.0 1017.1 0.0 NE 0.0 0.0
03:55 17.2 68.0 1017.1 0.0 NE 0.0 0.0
04:00 17.0 68.0 1017.1 0.0 NNE 0.0 0.0
04:05 16.9 69.0 1017.1 0.0 NNE 0.0 0.0
04:10 16.8 69.0 1017.0 0.0 NNE 0.0 0.0
04:15 16.7 69.0 1016.9 0.0 NNE 0.0 0.0
04:20 16.5 69.0 1017.0 0.0 NNE 0.0 0.0
04:25 16.6 70.0 1016.9 0.0 N 0.0 0.0
04:30 16.5 70.0 1016.9 0.0 N 0.0 0.0
04:35 16.4 70.0 1016.9 0.0 N 0.0 0.0
04:40 16.5 71.0 1016.9 0.0 N 0.0 0.0
04:45 16.6 71.0 1017.0 0.0 NNE 0.0 0.0
04:50 16.7 71.0 1017.0 0.0 NNE 0.0 0.0
04:55 16.6 70.0 1017.1 0.0 ESE 1.6 0.0
05:00 16.4 70.0 1017.0 0.0 ESE 1.6 0.0
05:05 16.3 71.0 1017.1 0.0 ESE 0.0 0.0
05:10 16.5 71.0 1017.1 1.6 ESE 3.2 0.0
05:15 16.6 71.0 1017.0 3.2 ESE 3.2 0.0
05:20 16.5 71.0 1017.1 3.2 E 4.8 0.0
05:25 16.7 71.0 1017.1 1.6 ENE 4.8 0.0
05:30 16.8 71.0 1017.2 0.0 ENE 6.4 0.0
05:35 16.8 71.0 1017.3 0.0 ENE 6.4 0.0
05:40 16.8 71.0 1017.3 0.0 ENE 0.0 0.0
05:45 16.7 71.0 1017.3 0.0 ENE 0.0 0.0
05:50 16.7 71.0 1017.4 0.0 ENE 0.0 0.0
05:55 16.8 71.0 1017.4 0.0 SE 0.0 0.0
06:00 16.7 71.0 1017.4 1.6 SW 4.8 0.0
06:05 16.8 70.0 1017.4 0.0 SW 4.8 0.0
06:10 17.0 70.0 1017.5 0.0 SW 1.6 0.0
06:15 17.3 70.0 1017.6 0.0 SW 0.0 0.0
06:20 17.7 70.0 1017.6 0.0 SW 0.0 0.0
06:25 18.1 70.0 1017.7 0.0 SW 0.0 0.0
06:30 18.2 68.0 1017.7 0.0 WSW 0.0 0.0
06:35 18.4 68.0 1017.7 0.0 WSW 0.0 0.0
06:40 18.8 67.0 1017.8 0.0 WSW 0.0 0.0
06:45 19.0 66.0 1017.8 0.0 SW 0.0 0.0
06:50 19.5 65.0 1017.8 0.0 SSW 0.0 0.0
06:55 19.7 64.0 1017.8 0.0 SSW 0.0 0.0
07:00 19.9 63.0 1017.9 0.0 SW 0.0 0.0
07:05 20.0 63.0 1017.8 0.0 WSW 3.2 0.0
07:10 19.9 63.0 1017.9 0.0 SW 3.2 0.0
07:15 20.2 63.0 1017.9 0.0 WSW 3.2 0.0
07:20 20.4 63.0 1017.9 0.0 SW 0.0 0.0
07:25 20.7 62.0 1017.9 0.0 SSW 0.0 0.0
07:30 20.8 62.0 1017.9 0.0 SSW 0.0 0.0
Màxima 20.8 71.0 1017.9 3.2 E 6.4 0.0
Mínima 16.3 62.0 1016.9
Total 0.0